Notices

What's New in latest Release from April 7th, 2021:

- Updated Glossary, including Speed of Maximum Gust, and Total Hourly Precipitation

- Updated national and regional climate services offices contacts and prices information

- Addition of station inventory lists for 1981-2010, 1971-2000, and 1961-1990 Normals.

If you haven't already, please take our survey and provide feedback about our website: https://eccc.sondage-survey.ca/f/LanguageSelection.aspx?s=442ca660-fcf1-47c0-95a9-59707d6fd709

Hourly Data Report for November 06, 2020

MUSKOKA
ONTARIO
Current Station Operator: NAVCAN

44°58'29.000" N
79°18'12.000" W
281.90 m
6115529
71532
YQA

Download Data

Hourly Data (November 2020)
Hourly Data Report for November 6, 2020
TIME
LST
Temp Definition
°C
Dew Point Definition
°C
Rel Hum Definition
%
Precip. Amount Definition
mm

Wind Dir Definition
10's deg

Wind Spd Definition
km/h
Visibility Definition
km
Stn Press Definition
kPa
Hmdx Definition


Wind Chill Definition


Weather Definition


00:00 8.4 7.0 91 LegendMM 17 5 16.1 98.49     LegendNANA
01:00 7.7 7.0 95 LegendMM 15 4 16.1 98.50     LegendNANA
02:00 4.7 4.4 98 LegendMM 16 4 2.0 98.50     Fog
03:00 3.0 2.6 97 LegendMM 17 5 3.2 98.49     Fog
04:00 4.0 3.7 98 LegendMM 16 5 3.6 98.48     Fog
05:00 3.2 2.9 98 LegendMM 15 5 0.8 98.51     Fog
06:00 2.6 2.5 99 LegendMM 17 5 1.2 98.50     Fog
07:00 1.6 1.5 99 LegendMM 16 5 6.4 98.53     Fog
08:00 4.8 4.7 99 LegendMM 18 9 6.4 98.55     Fog
09:00 8.8 7.9 94 LegendMM 18 8 14.5 98.54     LegendNANA
10:00 11.5 8.2 80 LegendMM 19 9 16.1 98.53     LegendNANA
11:00 13.9 7.9 67 LegendMM 21 11 16.1 98.53     LegendNANA
12:00 15.4 7.8 60 LegendMM 25 13 16.1 98.50     LegendNANA
13:00 17.2 7.9 54 LegendMM 25 17 16.1 98.45     LegendNANA
14:00 18.4 7.4 48 LegendMM 27 13 16.1 98.43     LegendNANA
15:00 18.4 7.3 48 LegendMM 23 11 16.1 98.43     LegendNANA
16:00 17.7 7.3 50 LegendMM 21 13 16.1 98.43     LegendNANA
17:00 16.1 7.1 55 LegendMM 24 9 16.1 98.46     LegendNANA
18:00 14.2 6.9 61 LegendMM 22 8 16.1 98.51     LegendNANA
19:00 8.5 5.6 82 LegendMM 17 5 16.1 98.58     LegendNANA
20:00 7.7 6.3 91 LegendMM 18 5 16.1 98.58     LegendNANA
21:00 5.9 5.1 94 LegendMM 16 4 16.1 98.61     LegendNANA
22:00 4.8 4.1 95 LegendMM 15 5 16.1 98.61     LegendNANA
23:00 4.0 3.7 98 LegendMM 14 5 11.3 98.60     LegendNANA

Notes on Data Quality.

Legend

  • E = Estimated
  • M = Missing
  • NA = Not Available*
  • [empty] = Indicates an unobserved value
Date modified: